Current Version              Previous Version:    01  02  03  04  05  06  07  08  09  10  11  12  13  14  15  16  17  18  19  20  21  22  23  24  25  26  27  28  29  30  
   31  32  33  34  35  36  37  38  39  40  41  42  43  44  45  46  47  48  49  50  51  52  53  54  55  56  57  58  59  60  

[Printable]
302
ASUS44 KEWX 220310
RWRTX
SOUTH TEXAS REGIONAL WEATHER ROUNDUP
NATIONAL WEATHER SERVICE AUSTIN/SAN ANTONIO TX
1000 PM CDT TUE OCT 21 2014

NOTE: "FAIR" INDICATED FEW OR NO CLOUDS BELOW 12,000 FEET WITH NO
SIGNIFICANT WEATHER AND/OR OBSTRUCTIONS TO VISIBILITY.

* - THESE STATIONS ARE NOT NWS OR FAA STATIONS...AND ARE NOT SUBJECT
    TO NWS AND FAA QUALITY CONTROL.

TXZ171-172-183>190-220400-
TEXAS HILL COUNTRY AND EDWARDS PLATEAU

CITY           SKY/WX    TMP DP  RH WIND       PRES   REMARKS
JUNCTION       CLOUDY    71  55  56 E6        30.06R
*LLANO           N/A    N/A N/A N/A MISG        N/A
BURNET         MOCLDY    65  47  52 CALM      30.09R
*HORSESHOE BAY MOCLDY    64  47  54 S3        30.07R
*KERRVILLE     CLOUDY    69  53  58 E6        30.07R
*FREDERICKSBRG MOCLDY    65  53  67 CALM      30.07R
*ROCKSPRINGS   CLOUDY    70  55  60 CALM      30.09S
*BOERNE STAGE  PTCLDY    66  45  45 CALM      30.07R
*CASTROVILLE   PTCLDY    73  47  38 E7        30.04R
HONDO          CLOUDY    72  51  47 E9        30.04R
*UVALDE        CLOUDY    75  56  50 E6        30.02R
DEL RIO        CLOUDY    70  67  90 N7        29.99S
LAUGHLIN AFB   CLOUDY    71  66  84 N2        30.01R
CARRIZO SPRGS  CLOUDY    73  61  64 SE3       29.98R
$$

TXZ173-191>194-202-209-217>225-228-220400-
CENTRAL AND SOUTH CENTRAL TEXAS

CITY           SKY/WX    TMP DP  RH WIND       PRES   REMARKS
GEORGETOWN     CLEAR     63  52  67 CALM      30.05R
AUSTIN/BERGSTM MOCLDY    60  54  80 CALM      30.05R
AUSTIN/MABRY   PTCLDY    68  52  56 CALM      30.06R
*AUSTIN/EXEC   PTCLDY    66  54  63 CALM      30.06R
*LAGO VISTA    NOT AVBL
SAN MARCOS     PTCLDY    63  45  51 NE6       30.05R
NEW BRAUNFELS  PTCLDY    70  46  42 E6        30.03R
RANDOLPH AFB   PTCLDY    68  47  46 E6        30.04R
PT SAN ANTONIO PTCLDY    74  47  38 E9        30.01R
SAN ANTONIO    MOCLDY    71  48  43 NE5       30.03R
STINSON FIELD  PTCLDY    74  47  38 E7        30.01R
*PLEASANTON    PTCLDY    72  50  46 NE5       30.02R
*LA GRANGE     CLEAR     64  58  79 CALM      30.03R
*GIDDINGS      CLEAR     68  56  66 E5        30.08R
*GONZALES      CLEAR     70  52  52 E5        30.03R
$$

TXZ163>164-176>182-195>201-210>213-226-227-235-220400-
SOUTHEAST TEXAS

CITY           SKY/WX    TMP DP  RH WIND       PRES   REMARKS
COLLEGE STN    CLEAR     69  59  70 E5        30.05R
*BRYAN         CLEAR     67  59  76 E3        30.07R
*CALDWELL      CLEAR     64  57  77 CALM      30.08R
*CROCKETT      CLEAR     64  63  94 CALM      30.09R FOG
*BRENHAM       CLEAR     69  59  69 CALM      30.06R
HUNTSVILLE     CLEAR     68  61  78 CALM      30.06R
CONROE         CLEAR     62  59  90 CALM      30.06R
HOUSTON BUSH   PTCLDY    67  61  81 CALM      30.04R
HOUSTON HOBBY  PTCLDY    69  59  70 CALM      30.03R
*HOUSTON SW AP CLEAR     59  58  95 CALM      30.04R
PEARLAND       CLEAR     68  61  78 CALM      30.04R
HOUSTON HOOKS  CLEAR     64  61  90 CALM      30.05R
ELLINGTON FLD  PTCLDY    73  59  60 NE3       30.04R
SUGAR LAND     CLEAR     62  59  90 CALM      30.03R
*HOUSTON EXEC  CLOUDY    64 N/A N/A NE5       30.05R
*CLEVELAND MUN CLEAR     63  62  96 CALM      30.05R
*WHARTON       CLEAR     63  55  75 CALM      30.04R
*COLUMBUS      FAIR      63  55  76 NE3       30.04R
$$

TXZ214>216-236>238-220400-
THE UPPER TEXAS COAST

CITY           SKY/WX    TMP DP  RH WIND       PRES   REMARKS
*ORANGE        CLEAR    N/A N/A N/A CALM      30.05R
PORT ARTHUR    CLEAR     64  62  93 CALM      30.03R
GALVESTON      CLEAR     73  64  73 NE9       30.04R
ANGLETON       CLEAR     59  58  96 CALM      30.03R
*BAY CITY        N/A     62  59  91 NE5       30.03R
PALACIOS       CLEAR     65  57  75 NW8       30.02R
$$

TXZ229>234-239>247-220400-
TEXAS COASTAL BEND AND RIO GRANDE PLAINS

CITY           SKY/WX    TMP DP  RH WIND       PRES   REMARKS
VICTORIA       CLEAR     65  59  81 E6        30.03R
*BEEVILLE      CLEAR     73  63  72 E6        30.01R
ROCKPORT       PTCLDY    75  65  70 E14       30.01R
*PORT ARANSAS  CLEAR     75  65  71 E13       30.00R
*PORT LAVACA   CLEAR     69  60  73 E8        30.03R
*INGLESIDE     PTCLDY    75  65  70 E10       30.00R
CORPUS CHRISTI MOCLDY    75  66  73 E12       29.99R
CORPUS NAS     MOCLDY    75  68  78 E14       29.99R
*ROBSTOWN      NOT AVBL
ALICE          MOCLDY    73  67  81 E7        29.99R
KINGSVILLE NAS MOCLDY    74  70  87 E8        29.99R
COTULLA        CLOUDY    79  61  53 SE9       30.00R
*FAITH RANCH   CLOUDY    72  68  88 S6        30.01R
LAREDO         LGT RAIN  73  71  93 E6        30.02R
$$

TXZ248>255-220400-
DEEP SOUTH TEXAS

CITY           SKY/WX    TMP DP  RH WIND       PRES   REMARKS
BROWNSVILLE    CLOUDY    78  72  81 NE8       29.95R
PORT ISABEL    CLOUDY    79  69  71 NE15      29.95R
*SOUTH PADRE   CLOUDY    81  72  74 E14G23    29.95R
HARLINGEN      CLOUDY    75  72  90 NE7       29.95R
*HEBBRONVILLE  CLOUDY    74  67  80 E8        30.02R
MCALLEN        CLOUDY    75  72  90 NE6       29.97R
*WESLACO       CLOUDY    74  71  89 NE5       29.96R
FALFURRIAS     MOCLDY    74  69  85 NE7       29.98S
EDINBURG       RAIN      76  72  87 E5        29.98R
*ZAPATA        NOT AVBL
$$

TXZ213>215-236>238-242>244-246-247-251-254-255-220400-
CMAN STATIONS

STATION/POSITION TIME  TEMP    WIND        PRES    WAVE
                       AIR SEA DIR/SP/G            HT/PER
                 (UTC) (F)     (DEG/KT/KT) (MB)    (FT/S)
SABINE PASS      0300   71 75   50/  6/  7 1016.9
SEA RIM ST PARK  0300   72      40/  7/  7 1017.5
NORTH JETTY/GLS  0300   76 78   80/ 11/ 14   N/A
EAGLE POINT      0300   75 75   70/  9/ 10 1016.9
MORGANS POINT    0300   73      50/  6/  7 1016.9
MISSION/ARANSAS  0200           80/ 11     1017.0
PORT O`CONNOR    0300           60/ 12/ 15   N/A
PORT ARANSAS     0300   77 78   70/ 16/ 19 1016.2
MALAQUITE BEACH  0300   77 79   60/ 18/ 19 1014.9
BAFFIN BAY       0300   77 84   70/ 13/ 16 1015.3
$$

GMZ080-GMZ150>470-220400-
OFFSHORE BUOY REPORTS

STATION/POSITION TIME  TEMP    WIND        PRES    WAVE
                       AIR SEA DIR/SP/G            HT/PER
                 (UTC) (F)     (DEG/KT/KT) (MB)    (FT/S)
20 E GALVESTON   0300   77 78   70/ 12/ 14 1016.2    3/ 6
90 E PT ARANSAS  0300   78 81   70/ 17/ 21 1015.7    6/ 7
35 NE PT MANSFLD 0300   79 80   70/ 17/ 19 1014.3    6/ 7
200 E PT ISABEL  0300   80 82   70/ 19/ 23 1012.7    6/ 6
$$